Location: Dumpton Point
(51.3500°N, 1.4433°E)
Time: 13:19:52
(UTC+00:00)

A-11 Canister half - Pass Details

Date: 08 December 2023
Orbit: 1526 x 1682 km, 47.3° (Epoch: 29 February)

Event Time Altitude Azimuth Distance (km) Brightness Sun altitude
Rises 21:05:27 0° 266° (W) 4,935 12.2 -47.9°
Reaches altitude 10° 21:08:38 10° 264° (W) 3,944 11.5 -48.4°
Enters shadow 21:13:44 35° 257° (WSW) 2,482 10.1 -49.0°
